This is the latest recevied weather packets stored in our database for station/object KG5WBN. If no packets are shown the sender has not sent any weather packets the latest 10 day(s).
| Time | Temp. | Humidity | Pressure | Rain* | Wind** | Luminosity | Snow |
|---|---|---|---|---|---|---|---|
| 1787364621 | 25° C | 99% | 1014.2 hPa | 1.27 mm | - | 0 W/m² | - |
| 1787364316 | 25° C | 99% | 1014.2 hPa | 0 mm | - | 0 W/m² | - |
| 1787364012 | 25° C | 99% | 1014.6 hPa | 1.78 mm | - | 0 W/m² | - |
| 1787363710 | 25° C | 99% | 1014.6 hPa | 1.78 mm | - | 0 W/m² | - |
| 1787363405 | 24.44° C | 99% | 1014.6 hPa | 0 mm | - | 0 W/m² | - |
| 1787363100 | 24.44° C | 99% | 1014.6 hPa | 1.78 mm | - | 0 W/m² | - |
| 1787362795 | 24.44° C | 99% | 1014.9 hPa | 1.78 mm | - | 0 W/m² | - |
| 1787362496 | 24.44° C | 99% | 1014.9 hPa | 1.27 mm | - | 0 W/m² | - |
| 1787362191 | 24.44° C | 99% | 1015.2 hPa | 1.27 mm | - | 0 W/m² | - |
| 1787361890 | 23.89° C | 99% | 1015.9 hPa | 0 mm | - | 0 W/m² | - |
| 1787361590 | 23.89° C | 99% | 1015.9 hPa | 0 mm | - | 0 W/m² | - |
| 1787361284 | 23.89° C | 99% | 1015.9 hPa | 0 mm | - | 0 W/m² | - |
| 1787360979 | 23.33° C | 99% | 1016.3 hPa | 0 mm | - | 0 W/m² | - |
| 1787360675 | 24.44° C | 99% | 1016.6 hPa | 0 mm | - | 0 W/m² | - |
| 1787360375 | 24.44° C | 99% | 1016.9 hPa | 0 mm | - | 0 W/m² | - |
| 1787360069 | 24.44° C | 99% | 1016.9 hPa | 0 mm | - | 0 W/m² | - |
| 1787359765 | 23.89° C | 99% | 1016.9 hPa | 0 mm | - | 0 W/m² | - |
| 1787359462 | 23.33° C | 99% | 1016.9 hPa | 0 mm | - | 0 W/m² | - |
| 1787359161 | 22.78° C | 99% | 1016.9 hPa | 0 mm | - | 0 W/m² | - |
| 1787358856 | 23.33° C | 99% | 1016.6 hPa | 1.78 mm | - | 0 W/m² | - |
| 1787358556 | 22.78° C | 99% | 1016.6 hPa | 1.78 mm | - | 0 W/m² | - |
| 1787358251 | 22.78° C | 99% | 1016.6 hPa | 7.11 mm | - | 0 W/m² | - |
| 1787357946 | 22.22° C | 99% | 1016.3 hPa | 22.86 mm | - | 0 W/m² | - |
| 1787357642 | 22.78° C | 99% | 1015.9 hPa | 48.51 mm | - | 0 W/m² | - |
| 1787357337 | 23.33° C | 99% | 1016.3 hPa | 59.44 mm | - | 0 W/m² | - |
* Rain latest hour (hover to see other rain measurements)
** Current wind speed in m/s (hover to see current wind gust speed)